レモン彗星

C/2019 NJ3 ( Lemmon )

English version
Home page
Updated on September 18, 2021

---------------------------------------------------------------------

・ プロフィール

発見日 2019年7月5日
発見光度 20.5等
発見者 Mt. Lemmon Survey

・ 写真集

・ 軌道要素

Epoch 2021 July 5.0 TT = JDT 2459400.5
T 2020 Oct. 22.42686 TT                                 Rudenko
q   4.3618590            (2000.0)            P               Q
z  -0.0002488      Peri.  246.86161     +0.21966311     -0.76835768
 +/-0.0000024      Node   142.45426     +0.03142569     +0.62144762
e   1.0010852      Incl.   99.43866     -0.97506951     -0.15306643
From 49 observations 2019 June 5-2021 Jan. 12, mean residual 0".4.

・ 光度変化

        m1 = 3.5 + 5 logΔ + 17.5 log r

---------------------------------------------------------------------

軌道要素はM.P.E.C. 2021-N06に掲載されたものです。
光度グラフはComet for Windowsで作成したものです。

---------------------------------------------------------------------

Copyright(C) Seiichi Yoshida (comet@aerith.net). All rights reserved.